Location: Peterborough
(44.3091°N, 78.3197°W)
Time: 14:56:52
(UTC-04:00)

Envisat - Pass Details

Date: 24 April 2026
Orbit: 761 x 762 km, 98.4° (Epoch: 17 May)

Event Time Altitude Azimuth Distance (km) Brightness Sun altitude
Rises 03:16:48 0° 20° (NNE) 3,233 7.5 -26.1°
Reaches altitude 10° 03:19:15 10° 29° (NNE) 2,302 6.5 -25.8°
Maximum altitude 03:23:59 39° 97° (E) 1,137 4.0 -25.4°
Enters shadow 03:25:35 31° 137° (SE) 1,323 4.1 -25.2°
